This is the latest recevied weather packets stored in our database for station/object OK2JF-6. If no packets are shown the sender has not sent any weather packets the latest 10 day(s).
| Time | Temp. | Humidity | Pressure | Rain* | Wind** | Luminosity | Snow |
|---|---|---|---|---|---|---|---|
| 1777763583 | 6.67° C | 80% | 1091.3 hPa | 0 mm | - | 0 W/m² | - |
| 1777763463 | 6.67° C | 80% | 1091.2 hPa | 0 mm | - | 0 W/m² | - |
| 1777763357 | 6.67° C | 81% | 1091.4 hPa | 0 mm | - | 0 W/m² | - |
| 1777762864 | 6.67° C | 78% | 1091.5 hPa | 0 mm | - | 0 W/m² | - |
| 1777762743 | 6.67° C | 79% | 1091.2 hPa | 0 mm | - | 0 W/m² | - |
| 1777762623 | 6.67° C | 80% | 1091.4 hPa | 0 mm | - | 0 W/m² | - |
| 1777762503 | 6.67° C | 78% | 1091.3 hPa | 0 mm | - | 0 W/m² | - |
| 1777762444 | 6.67° C | 78% | 1091.3 hPa | 0 mm | - | 0 W/m² | - |
| 1777761978 | 7.22° C | 78% | 1091.4 hPa | 0 mm | - | 0 W/m² | - |
| 1777760943 | 7.22° C | 77% | 1091.4 hPa | 0 mm | - | 0 W/m² | - |
| 1777760583 | 7.78° C | 77% | 1091.4 hPa | 0 mm | - | 0 W/m² | - |
| 1777760163 | 7.78° C | 77% | 1091.5 hPa | 0 mm | - | 0 W/m² | - |
| 1777759924 | 7.78° C | 77% | 1091.4 hPa | 0 mm | - | 0 W/m² | - |
| 1777759803 | 7.78° C | 76% | 1091.7 hPa | 0 mm | - | 0 W/m² | - |
| 1777759743 | 7.78° C | 75% | 1091.6 hPa | 0 mm | - | 0 W/m² | - |
| 1777759503 | 7.78° C | 75% | 1091.4 hPa | 0 mm | - | 0 W/m² | - |
| 1777759084 | 8.33° C | 76% | 1091.4 hPa | 0 mm | - | 0 W/m² | - |
| 1777758663 | 8.33° C | 74% | 1091.6 hPa | 0 mm | - | 0 W/m² | - |
| 1777758543 | 8.33° C | 74% | 1091.7 hPa | 0 mm | - | 0 W/m² | - |
| 1777758423 | 8.33° C | 77% | 1091.4 hPa | 0 mm | - | 0 W/m² | - |
| 1777758378 | 8.33° C | 74% | 1091.5 hPa | 0 mm | - | 0 W/m² | - |
| 1777758303 | 8.33° C | 73% | 1091.5 hPa | 0 mm | - | 0 W/m² | - |
| 1777757943 | 8.89° C | 72% | 1091.7 hPa | 0 mm | - | 0 W/m² | - |
| 1777756503 | 9.44° C | 71% | 1091.7 hPa | 0 mm | - | 0 W/m² | - |
| 1777756443 | 9.44° C | 72% | 1091.7 hPa | 0 mm | - | 0 W/m² | - |
* Rain latest hour (hover to see other rain measurements)
** Current wind speed in m/s (hover to see current wind gust speed)